Location: Holkham
(52.9500°N, 0.8167°E)
Time: 18:07:19
(UTC+00:00)

SL-8 Rocket - Pass Details

Date: 19 May 2025
Orbit: 955 x 990 km, 82.9° (Epoch: 22 June)

Event Time Altitude Azimuth Distance (km) Brightness Sun altitude
Rises 21:14:48 0° 349° (NNW) 3,659 8.3 -9.4°
Reaches altitude 10° 21:17:19 10° 349° (N) 2,705 7.5 -9.6°
Maximum altitude 21:23:31 89° 264° (W) 965 4.0 -10.2°
Drops below altitude 10° 21:29:40 10° 173° (S) 2,681 5.8 -10.7°
Enters shadow 21:29:41 10° 173° (S) 2,692 5.8 -10.7°
